Time,TemperatureF,DewpointF,PressureIn,WindDirection,WindDirectionDegrees,WindSpeedMPH,WindSpeedGustMPH,Humidity,HourlyPrecipIn,Conditions,Clouds,dailyrainin,SoftwareType,DateUTC
2013-05-24 00:00:00,57.5,51.4,29.91,SE,143,0.0,4.0,80,0.00,,---,0.00,VWS V14.01,2013-05-24 07:00:00,
2013-05-24 00:03:00,57.4,51.3,29.91,SE,142,0.0,5.0,80,0.00,,---,0.00,VWS V14.01,2013-05-24 07:03:00,
2013-05-24 00:08:00,57.4,51.3,29.91,SSE,156,0.0,5.0,80,0.00,,---,0.00,VWS V14.01,2013-05-24 07:08:00,
2013-05-24 00:13:00,57.4,51.3,29.91,SSE,155,0.0,5.0,80,0.00,,---,0.00,VWS V14.01,2013-05-24 07:13:00,
2013-05-24 00:15:00,57.4,51.3,29.91,SSE,153,0.0,5.0,80,0.00,,---,0.00,VWS V14.01,2013-05-24 07:15:00,
2013-05-24 00:18:00,57.4,51.3,29.91,SSE,150,0.0,4.0,80,0.00,,---,0.00,VWS V14.01,2013-05-24 07:18:00,
2013-05-24 00:23:00,57.5,51.4,29.91,SSE,150,0.0,4.0,80,0.00,,---,0.00,VWS V14.01,2013-05-24 07:23:00,
2013-05-24 00:28:00,57.4,51.0,29.91,SSE,149,0.0,4.0,79,0.00,,---,0.00,VWS V14.01,2013-05-24 07:28:00,
2013-05-24 00:33:00,57.4,51.3,29.91,SSE,151,0.0,0.0,80,0.00,,---,0.00,VWS V14.01,2013-05-24 07:33:00,
2013-05-24 00:38:00,57.4,51.3,29.91,SSE,150,1.0,3.0,80,0.00,,---,0.00,VWS V14.01,2013-05-24 07:38:00,
2013-05-24 00:43:00,57.3,51.2,29.91,SSE,150,0.0,3.0,80,0.00,,---,0.00,VWS V14.01,2013-05-24 07:43:00,
2013-05-24 00:45:00,57.3,51.2,29.91,SSE,151,0.0,3.0,80,0.00,,---,0.00,VWS V14.01,2013-05-24 07:45:00,
2013-05-24 00:48:00,57.3,51.2,29.90,SSE,150,0.0,1.0,80,0.00,,---,0.00,VWS V14.01,2013-05-24 07:48:00,
2013-05-24 00:53:00,57.3,51.2,29.90,SSE,150,0.0,2.0,80,0.00,,---,0.00,VWS V14.01,2013-05-24 07:53:00,
2013-05-24 00:58:00,57.2,51.1,29.90,SSE,149,1.0,5.0,80,0.00,,---,0.00,VWS V14.01,2013-05-24 07:58:00,
2013-05-24 01:00:00,57.2,50.8,29.90,SE,130,0.0,5.0,79,0.00,,---,0.00,VWS V14.01,2013-05-24 08:00:00,
2013-05-24 01:03:00,57.2,50.8,29.90,SSE,152,3.0,4.0,79,0.00,,---,0.00,VWS V14.01,2013-05-24 08:03:00,
2013-05-24 01:09:00,57.0,50.6,29.90,SE,137,0.0,5.0,79,0.00,,---,0.00,VWS V14.01,2013-05-24 08:09:00,
2013-05-24 01:14:00,56.9,50.5,29.90,ESE,119,0.0,5.0,79,0.00,,---,0.00,VWS V14.01,2013-05-24 08:14:00,
2013-05-24 01:15:00,56.9,50.5,29.90,ESE,113,3.0,5.0,79,0.00,,---,0.00,VWS V14.01,2013-05-24 08:15:00,
2013-05-24 01:19:00,56.8,50.0,29.90,ESE,103,0.0,3.0,78,0.00,,---,0.00,VWS V14.01,2013-05-24 08:19:00,
2013-05-24 01:24:00,56.8,50.0,29.90,ESE,116,1.0,3.0,78,0.00,,---,0.00,VWS V14.01,2013-05-24 08:24:00,
2013-05-24 01:29:00,56.6,49.8,29.90,ESE,115,0.0,4.0,78,0.00,,---,0.00,VWS V14.01,2013-05-24 08:29:00,
2013-05-24 01:30:00,56.6,49.8,29.90,ESE,114,0.0,4.0,78,0.00,,---,0.00,VWS V14.01,2013-05-24 08:30:00,
2013-05-24 01:34:00,56.5,49.7,29.90,ESE,114,0.0,3.0,78,0.00,,---,0.00,VWS V14.01,2013-05-24 08:34:00,
2013-05-24 01:39:00,56.4,49.6,29.90,ESE,103,3.0,6.0,78,0.00,,---,0.00,VWS V14.01,2013-05-24 08:39:00,
2013-05-24 01:44:00,56.3,49.5,29.90,ESE,109,2.0,6.0,78,0.00,,---,0.00,VWS V14.01,2013-05-24 08:44:00,
2013-05-24 01:45:00,56.3,49.5,29.90,ESE,107,3.0,6.0,78,0.00,,---,0.00,VWS V14.01,2013-05-24 08:45:00,
2013-05-24 01:49:00,56.2,49.4,29.90,East,87,0.0,5.0,78,0.00,,---,0.00,VWS V14.01,2013-05-24 08:49:00,
2013-05-24 01:54:00,56.2,49.4,29.89,East,91,4.0,6.0,78,0.00,,---,0.00,VWS V14.01,2013-05-24 08:54:00,
2013-05-24 01:59:00,56.1,49.3,29.89,East,84,0.0,6.0,78,0.00,,---,0.00,VWS V14.01,2013-05-24 08:59:00,
2013-05-24 02:00:00,56.1,49.3,29.89,East,99,0.0,6.0,78,0.00,,---,0.00,VWS V14.01,2013-05-24 09:00:00,
2013-05-24 02:04:00,56.0,49.2,29.90,East,84,5.0,5.0,78,0.00,,---,0.00,VWS V14.01,2013-05-24 09:04:00,
2013-05-24 02:09:00,55.9,49.2,29.89,ENE,76,4.0,6.0,78,0.00,,---,0.00,VWS V14.01,2013-05-24 09:09:00,
2013-05-24 02:14:00,55.9,49.2,29.89,East,94,5.0,6.0,78,0.00,,---,0.00,VWS V14.01,2013-05-24 09:14:00,
2013-05-24 02:15:00,55.8,49.0,29.89,East,94,5.0,6.0,78,0.00,,---,0.00,VWS V14.01,2013-05-24 09:15:00,
2013-05-24 02:19:00,55.8,48.7,29.89,East,100,6.0,7.0,77,0.00,,---,0.00,VWS V14.01,2013-05-24 09:19:00,
2013-05-24 02:24:00,55.7,48.6,29.89,East,87,3.0,7.0,77,0.00,,---,0.00,VWS V14.01,2013-05-24 09:24:00,
2013-05-24 02:29:00,55.7,49.0,29.89,ESE,103,2.0,7.0,78,0.00,,---,0.00,VWS V14.01,2013-05-24 09:29:00,
2013-05-24 02:30:00,55.7,49.0,29.89,East,101,4.0,7.0,78,0.00,,---,0.00,VWS V14.01,2013-05-24 09:30:00,
2013-05-24 02:34:00,55.7,49.0,29.89,East,96,0.0,5.0,78,0.00,,---,0.00,VWS V14.01,2013-05-24 09:34:00,
2013-05-24 02:39:00,55.7,49.0,29.89,East,90,2.0,6.0,78,0.00,,---,0.00,VWS V14.01,2013-05-24 09:39:00,
2013-05-24 02:44:00,55.7,49.0,29.89,East,85,0.0,6.0,78,0.00,,---,0.00,VWS V14.01,2013-05-24 09:44:00,
2013-05-24 02:45:00,55.7,49.0,29.89,East,84,3.0,6.0,78,0.00,,---,0.00,VWS V14.01,2013-05-24 09:45:00,
2013-05-24 02:49:00,55.7,49.0,29.89,East,85,0.0,3.0,78,0.00,,---,0.00,VWS V14.01,2013-05-24 09:49:00,
2013-05-24 02:54:00,55.7,48.6,29.89,East,86,0.0,3.0,77,0.00,,---,0.00,VWS V14.01,2013-05-24 09:54:00,
2013-05-24 02:59:00,55.5,48.4,29.89,East,84,0.0,3.0,77,0.00,,---,0.00,VWS V14.01,2013-05-24 09:59:00,
2013-05-24 03:00:00,55.5,48.4,29.89,East,85,1.0,3.0,77,0.00,,---,0.00,VWS V14.01,2013-05-24 10:00:00,
2013-05-24 03:04:00,55.4,48.7,29.89,East,84,0.0,4.0,78,0.00,,---,0.00,VWS V14.01,2013-05-24 10:04:00,
2013-05-24 03:09:00,55.3,48.6,29.89,East,86,0.0,4.0,78,0.00,,---,0.00,VWS V14.01,2013-05-24 10:09:00,
2013-05-24 03:14:00,55.3,48.6,29.89,East,85,2.0,4.0,78,0.00,,---,0.00,VWS V14.01,2013-05-24 10:14:00,
2013-05-24 03:15:00,55.2,48.5,29.89,East,84,0.0,4.0,78,0.00,,---,0.00,VWS V14.01,2013-05-24 10:15:00,
2013-05-24 03:19:00,55.2,48.5,29.89,East,85,0.0,3.0,78,0.00,,---,0.00,VWS V14.01,2013-05-24 10:19:00,
2013-05-24 03:24:00,55.1,48.7,29.89,East,84,2.0,3.0,79,0.00,,---,0.00,VWS V14.01,2013-05-24 10:24:00,
2013-05-24 03:29:00,55.2,48.8,29.89,East,97,3.0,4.0,79,0.00,,---,0.00,VWS V14.01,2013-05-24 10:29:00,
2013-05-24 03:30:00,55.2,48.8,29.90,East,97,1.0,4.0,79,0.00,,---,0.00,VWS V14.01,2013-05-24 10:30:00,
2013-05-24 03:34:00,55.3,48.9,29.90,East,98,0.0,3.0,79,0.00,,---,0.00,VWS V14.01,2013-05-24 10:34:00,
2013-05-24 03:39:00,55.4,49.0,29.90,East,87,3.0,5.0,79,0.00,,---,0.00,VWS V14.01,2013-05-24 10:39:00,
2013-05-24 03:44:00,55.4,49.0,29.90,ENE,72,0.0,5.0,79,0.00,,---,0.00,VWS V14.01,2013-05-24 10:44:00,
2013-05-24 03:45:00,55.4,49.0,29.90,ENE,69,2.0,5.0,79,0.00,,---,0.00,VWS V14.01,2013-05-24 10:45:00,
2013-05-24 03:49:00,55.3,48.6,29.90,ENE,69,3.0,5.0,78,0.00,,---,0.00,VWS V14.01,2013-05-24 10:49:00,
2013-05-24 03:54:00,55.2,48.5,29.90,ENE,67,2.0,5.0,78,0.00,,---,0.00,VWS V14.01,2013-05-24 10:54:00,
2013-05-24 03:59:00,55.0,48.3,29.89,ENE,65,3.0,5.0,78,0.00,,---,0.00,VWS V14.01,2013-05-24 10:59:00,
2013-05-24 04:00:00,55.0,48.3,29.89,ENE,63,0.0,5.0,78,0.00,,---,0.00,VWS V14.01,2013-05-24 11:00:00,
2013-05-24 04:04:00,54.8,48.1,29.90,ENE,61,2.0,5.0,78,0.00,,---,0.00,VWS V14.01,2013-05-24 11:04:00,
2013-05-24 04:09:00,54.7,48.3,29.90,ENE,57,1.0,7.0,79,0.00,,---,0.00,VWS V14.01,2013-05-24 11:09:00,
2013-05-24 04:14:00,54.6,48.2,29.90,NE,55,1.0,7.0,79,0.00,,---,0.00,VWS V14.01,2013-05-24 11:14:00,
2013-05-24 04:15:00,54.6,48.2,29.90,NE,55,3.0,7.0,79,0.00,,---,0.00,VWS V14.01,2013-05-24 11:15:00,
2013-05-24 04:19:00,54.5,48.1,29.90,NE,56,3.0,5.0,79,0.00,,---,0.00,VWS V14.01,2013-05-24 11:19:00,
2013-05-24 04:25:00,54.3,47.9,29.90,NE,56,2.0,5.0,79,0.00,,---,0.00,VWS V14.01,2013-05-24 11:25:00,
2013-05-24 04:30:00,54.2,48.2,29.90,ENE,58,1.0,5.0,80,0.00,,---,0.00,VWS V14.01,2013-05-24 11:30:00,
2013-05-24 04:35:00,54.1,48.1,29.90,ENE,58,2.0,5.0,80,0.00,,---,0.00,VWS V14.01,2013-05-24 11:35:00,
2013-05-24 04:40:00,54.0,48.0,29.90,ENE,59,3.0,5.0,80,0.00,,---,0.00,VWS V14.01,2013-05-24 11:40:00,
2013-05-24 04:45:00,53.9,47.9,29.90,ENE,61,3.0,6.0,80,0.00,,---,0.00,VWS V14.01,2013-05-24 11:45:00,
2013-05-24 04:50:00,53.8,47.8,29.90,NE,56,4.0,7.0,80,0.00,,---,0.00,VWS V14.01,2013-05-24 11:50:00,
2013-05-24 04:55:00,53.7,48.0,29.90,NE,56,3.0,7.0,81,0.00,,---,0.00,VWS V14.01,2013-05-24 11:55:00,
2013-05-24 05:00:00,53.7,48.0,29.90,ENE,57,3.0,7.0,81,0.00,,---,0.00,VWS V14.01,2013-05-24 12:00:00,
2013-05-24 05:05:00,53.7,48.0,29.91,ENE,57,3.0,5.0,81,0.00,,---,0.00,VWS V14.01,2013-05-24 12:05:00,
2013-05-24 05:10:00,53.8,48.1,29.91,NE,56,1.0,5.0,81,0.00,,---,0.00,VWS V14.01,2013-05-24 12:10:00,
2013-05-24 05:15:00,53.9,48.2,29.91,NE,56,0.0,5.0,81,0.00,,---,0.00,VWS V14.01,2013-05-24 12:15:00,
2013-05-24 05:20:00,54.0,48.3,29.91,NE,56,0.0,3.0,81,0.00,,---,0.00,VWS V14.01,2013-05-24 12:20:00,
2013-05-24 05:25:00,54.1,48.4,29.92,ENE,57,0.0,4.0,81,0.00,,---,0.00,VWS V14.01,2013-05-24 12:25:00,
2013-05-24 05:30:00,54.4,48.7,29.92,NE,56,0.0,4.0,81,0.00,,---,0.00,VWS V14.01,2013-05-24 12:30:00,
2013-05-24 05:35:00,54.6,48.9,29.92,ENE,57,0.0,0.0,81,0.00,,---,0.00,VWS V14.01,2013-05-24 12:35:00,
2013-05-24 05:40:00,54.7,48.7,29.92,ENE,57,0.0,0.0,80,0.00,,---,0.00,VWS V14.01,2013-05-24 12:40:00,
2013-05-24 05:45:00,54.9,48.9,29.92,NE,56,0.0,0.0,80,0.00,,---,0.00,VWS V14.01,2013-05-24 12:45:00,
2013-05-24 05:50:00,55.1,49.0,29.92,NE,56,0.0,0.0,80,0.00,,---,0.00,VWS V14.01,2013-05-24 12:50:00,
2013-05-24 05:55:00,55.2,49.2,29.92,NE,56,0.0,0.0,80,0.00,,---,0.00,VWS V14.01,2013-05-24 12:55:00,
2013-05-24 06:00:00,55.4,49.7,29.93,ENE,57,0.0,3.0,81,0.00,,---,0.00,VWS V14.01,2013-05-24 13:00:00,
2013-05-24 06:05:00,55.5,49.8,29.93,ENE,57,0.0,0.0,81,0.00,,---,0.00,VWS V14.01,2013-05-24 13:05:00,
2013-05-24 06:10:00,55.7,50.0,29.93,ENE,57,0.0,0.0,81,0.00,,---,0.00,VWS V14.01,2013-05-24 13:10:00,
2013-05-24 06:15:00,55.7,50.0,29.93,SSE,157,0.0,5.0,81,0.00,,---,0.00,VWS V14.01,2013-05-24 13:15:00,
2013-05-24 06:20:00,55.8,50.1,29.93,SE,131,0.0,3.0,81,0.00,,---,0.00,VWS V14.01,2013-05-24 13:20:00,
2013-05-24 06:25:00,55.9,50.2,29.93,SE,130,2.0,3.0,81,0.00,,---,0.00,VWS V14.01,2013-05-24 13:25:00,
2013-05-24 06:30:00,55.9,50.5,29.93,SE,129,0.0,3.0,82,0.00,,---,0.00,VWS V14.01,2013-05-24 13:30:00,
2013-05-24 06:35:00,56.0,50.6,29.94,SE,130,0.0,1.0,82,0.00,,---,0.00,VWS V14.01,2013-05-24 13:35:00,
2013-05-24 06:40:00,56.0,50.6,29.94,SE,130,1.0,5.0,82,0.00,,---,0.00,VWS V14.01,2013-05-24 13:40:00,
2013-05-24 06:45:00,56.1,50.7,29.94,SSE,150,3.0,5.0,82,0.00,,---,0.00,VWS V14.01,2013-05-24 13:45:00,
2013-05-24 06:50:00,56.1,51.0,29.94,SE,143,3.0,4.0,83,0.00,,---,0.00,VWS V14.01,2013-05-24 13:50:00,
2013-05-24 06:55:00,56.2,50.8,29.94,SSE,153,3.0,5.0,82,0.00,,---,0.00,VWS V14.01,2013-05-24 13:55:00,
2013-05-24 07:00:00,56.2,51.1,29.94,SSE,151,0.0,5.0,83,0.00,,---,0.00,VWS V14.01,2013-05-24 14:00:00,
2013-05-24 07:05:00,56.3,51.2,29.94,SSE,155,0.0,3.0,83,0.00,,---,0.00,VWS V14.01,2013-05-24 14:05:00,
2013-05-24 07:10:00,56.4,51.3,29.94,SSE,155,0.0,3.0,83,0.00,,---,0.00,VWS V14.01,2013-05-24 14:10:00,
2013-05-24 07:15:00,56.7,51.6,29.94,SSE,156,0.0,3.0,83,0.00,,---,0.00,VWS V14.01,2013-05-24 14:15:00,
2013-05-24 07:20:00,56.8,51.7,29.94,South,175,2.0,6.0,83,0.00,,---,0.00,VWS V14.01,2013-05-24 14:20:00,
2013-05-24 07:25:00,56.9,51.8,29.94,South,186,2.0,6.0,83,0.00,,---,0.00,VWS V14.01,2013-05-24 14:25:00,
2013-05-24 07:30:00,57.1,52.0,29.94,SSW,192,2.0,6.0,83,0.00,,---,0.00,VWS V14.01,2013-05-24 14:30:00,
2013-05-24 07:35:00,57.2,52.1,29.94,South,188,0.0,4.0,83,0.00,,---,0.00,VWS V14.01,2013-05-24 14:35:00,
2013-05-24 07:40:00,57.4,52.0,29.94,South,188,0.0,4.0,82,0.00,,---,0.00,VWS V14.01,2013-05-24 14:40:00,
2013-05-24 07:45:00,57.5,52.1,29.94,SSW,200,2.0,2.0,82,0.00,,---,0.00,VWS V14.01,2013-05-24 14:45:00,
2013-05-24 07:50:00,57.7,52.2,29.94,SSW,208,4.0,5.0,82,0.00,,---,0.00,VWS V14.01,2013-05-24 14:50:00,
2013-05-24 07:55:00,57.8,52.0,29.94,SSW,212,5.0,5.0,81,0.00,,---,0.00,VWS V14.01,2013-05-24 14:55:00,
2013-05-24 08:00:00,57.8,51.7,29.95,SW,219,3.0,3.0,80,0.00,,---,0.00,VWS V14.01,2013-05-24 15:00:00,
2013-05-24 08:06:00,57.8,51.7,29.95,SSW,211,0.0,4.0,80,0.00,,---,0.00,VWS V14.01,2013-05-24 15:06:00,
2013-05-24 08:11:00,57.9,51.8,29.95,SSW,211,0.0,4.0,80,0.00,,---,0.00,VWS V14.01,2013-05-24 15:11:00,
2013-05-24 08:15:00,58.1,52.0,29.95,WSW,240,3.0,5.0,80,0.00,,---,0.00,VWS V14.01,2013-05-24 15:15:00,
2013-05-24 08:16:00,58.1,52.0,29.95,WSW,240,4.0,4.0,80,0.00,,---,0.00,VWS V14.01,2013-05-24 15:16:00,
2013-05-24 08:21:00,58.4,51.9,29.95,WSW,240,0.0,4.0,79,0.00,,---,0.00,VWS V14.01,2013-05-24 15:21:00,
2013-05-24 08:26:00,58.8,52.3,29.95,WSW,239,0.0,4.0,79,0.00,,---,0.00,VWS V14.01,2013-05-24 15:26:00,
2013-05-24 08:30:00,59.0,52.2,29.95,WSW,250,3.0,5.0,78,0.00,,---,0.00,VWS V14.01,2013-05-24 15:30:00,
2013-05-24 08:31:00,59.0,52.2,29.95,WSW,253,2.0,3.0,78,0.00,,---,0.00,VWS V14.01,2013-05-24 15:31:00,
2013-05-24 08:36:00,59.0,51.8,29.95,SSW,207,2.0,6.0,77,0.00,,---,0.00,VWS V14.01,2013-05-24 15:36:00,
2013-05-24 08:41:00,59.4,52.2,29.95,SSW,207,0.0,6.0,77,0.00,,---,0.00,VWS V14.01,2013-05-24 15:41:00,
2013-05-24 08:45:00,59.6,51.7,29.95,SSW,208,2.0,6.0,75,0.00,,---,0.00,VWS V14.01,2013-05-24 15:45:00,
2013-05-24 08:46:00,59.7,51.8,29.95,WSW,250,3.0,4.0,75,0.00,,---,0.00,VWS V14.01,2013-05-24 15:46:00,
2013-05-24 08:51:00,60.2,52.6,29.95,West,261,5.0,6.0,76,0.00,,---,0.00,VWS V14.01,2013-05-24 15:51:00,
2013-05-24 08:56:00,60.3,52.3,29.96,SW,228,0.0,7.0,75,0.00,,---,0.00,VWS V14.01,2013-05-24 15:56:00,
2013-05-24 09:00:00,60.1,51.4,29.96,WSW,252,0.0,7.0,73,0.00,,---,0.00,VWS V14.01,2013-05-24 16:00:00,
2013-05-24 09:01:00,60.1,51.4,29.96,WSW,252,0.0,0.0,73,0.00,,---,0.00,VWS V14.01,2013-05-24 16:01:00,
2013-05-24 09:06:00,60.1,51.8,29.96,WSW,253,3.0,4.0,74,0.00,,---,0.00,VWS V14.01,2013-05-24 16:06:00,
2013-05-24 09:11:00,60.3,51.6,29.95,NW,309,0.0,4.0,73,0.00,,---,0.00,VWS V14.01,2013-05-24 16:11:00,
2013-05-24 09:15:00,60.6,51.5,29.95,West,277,4.0,4.0,72,0.00,,---,0.00,VWS V14.01,2013-05-24 16:15:00,
2013-05-24 09:16:00,60.7,52.0,29.95,West,265,3.0,5.0,73,0.00,,---,0.00,VWS V14.01,2013-05-24 16:16:00,
2013-05-24 09:21:00,60.9,51.8,29.95,SW,224,0.0,5.0,72,0.00,,---,0.00,VWS V14.01,2013-05-24 16:21:00,
2013-05-24 09:26:00,61.1,52.0,29.95,WSW,238,2.0,5.0,72,0.00,,---,0.00,VWS V14.01,2013-05-24 16:26:00,
2013-05-24 09:30:00,61.1,52.0,29.95,WSW,238,0.0,5.0,72,0.00,,---,0.00,VWS V14.01,2013-05-24 16:30:00,
2013-05-24 09:31:00,61.1,52.0,29.95,WSW,240,2.0,2.0,72,0.00,,---,0.00,VWS V14.01,2013-05-24 16:31:00,
2013-05-24 09:36:00,61.6,52.1,29.95,WNW,282,1.0,3.0,71,0.00,,---,0.00,VWS V14.01,2013-05-24 16:36:00,
2013-05-24 09:41:00,62.7,53.2,29.95,SW,227,3.0,6.0,71,0.00,,---,0.00,VWS V14.01,2013-05-24 16:41:00,
2013-05-24 09:45:00,63.4,52.3,29.95,West,278,0.0,6.0,67,0.00,,---,0.00,VWS V14.01,2013-05-24 16:45:00,
2013-05-24 09:46:00,63.5,52.8,29.95,West,278,0.0,0.0,68,0.00,,---,0.00,VWS V14.01,2013-05-24 16:46:00,
2013-05-24 09:51:00,64.4,52.8,29.95,WSW,240,0.0,6.0,66,0.00,,---,0.00,VWS V14.01,2013-05-24 16:51:00,
2013-05-24 09:56:00,65.1,53.9,29.95,South,182,1.0,6.0,67,0.00,,---,0.00,VWS V14.01,2013-05-24 16:56:00,
2013-05-24 10:00:00,65.4,52.9,29.95,SW,221,0.0,6.0,64,0.00,,---,0.00,VWS V14.01,2013-05-24 17:00:00,
2013-05-24 10:01:00,65.4,53.3,29.95,WSW,250,5.0,5.0,65,0.00,,---,0.00,VWS V14.01,2013-05-24 17:01:00,
2013-05-24 10:06:00,65.7,54.0,29.95,WSW,239,0.0,5.0,66,0.00,,---,0.00,VWS V14.01,2013-05-24 17:06:00,
2013-05-24 10:11:00,66.1,53.6,29.95,West,259,0.0,5.0,64,0.00,,---,0.00,VWS V14.01,2013-05-24 17:11:00,
2013-05-24 10:15:00,65.9,52.1,29.95,WSW,249,1.0,5.0,61,0.00,,---,0.00,VWS V14.01,2013-05-24 17:15:00,
2013-05-24 10:16:00,66.0,53.1,29.95,WSW,250,0.0,1.0,63,0.00,,---,0.00,VWS V14.01,2013-05-24 17:16:00,
2013-05-24 10:21:00,66.2,53.7,29.95,SW,229,9.0,9.0,64,0.00,,---,0.00,VWS V14.01,2013-05-24 17:21:00,
2013-05-24 10:26:00,66.3,53.8,29.95,SW,222,7.0,9.0,64,0.00,,---,0.00,VWS V14.01,2013-05-24 17:26:00,
2013-05-24 10:30:00,66.3,53.3,29.95,WSW,249,1.0,10.0,63,0.00,,---,0.00,VWS V14.01,2013-05-24 17:30:00,
2013-05-24 10:31:00,66.3,52.9,29.95,SW,226,0.0,1.0,62,0.00,,---,0.00,VWS V14.01,2013-05-24 17:31:00,
2013-05-24 10:36:00,66.5,51.8,29.95,SW,232,0.0,6.0,59,0.00,,---,0.00,VWS V14.01,2013-05-24 17:36:00,
2013-05-24 10:41:00,67.2,54.2,29.95,WSW,249,3.0,7.0,63,0.00,,---,0.00,VWS V14.01,2013-05-24 17:41:00,
2013-05-24 10:45:00,67.7,54.7,29.95,SW,221,4.0,8.0,63,0.00,,---,0.00,VWS V14.01,2013-05-24 17:45:00,
2013-05-24 10:46:00,67.7,54.7,29.95,SW,234,2.0,7.0,63,0.00,,---,0.00,VWS V14.01,2013-05-24 17:46:00,
2013-05-24 10:51:00,67.8,54.3,29.95,WSW,250,4.0,10.0,62,0.00,,---,0.00,VWS V14.01,2013-05-24 17:51:00,
2013-05-24 10:56:00,67.8,53.0,29.95,West,259,0.0,10.0,59,0.00,,---,0.00,VWS V14.01,2013-05-24 17:56:00,
2013-05-24 11:00:00,67.8,54.3,29.95,WSW,237,7.0,10.0,62,0.00,,---,0.00,VWS V14.01,2013-05-24 18:00:00,
2013-05-24 11:01:00,67.9,54.4,29.95,South,187,0.0,7.0,62,0.00,,---,0.00,VWS V14.01,2013-05-24 18:01:00,
2013-05-24 11:06:00,68.0,54.5,29.95,WSW,238,7.0,10.0,62,0.00,,---,0.00,VWS V14.01,2013-05-24 18:06:00,
2013-05-24 11:11:00,68.0,55.8,29.95,SW,231,5.0,10.0,65,0.00,,---,0.00,VWS V14.01,2013-05-24 18:11:00,
2013-05-24 11:15:00,68.1,54.6,29.95,SW,221,0.0,10.0,62,0.00,,---,0.00,VWS V14.01,2013-05-24 18:15:00,
2013-05-24 11:16:00,68.1,54.2,29.95,SW,221,0.0,0.0,61,0.00,,---,0.00,VWS V14.01,2013-05-24 18:16:00,
2013-05-24 11:21:00,68.2,55.1,29.95,SW,236,4.0,4.0,63,0.00,,---,0.00,VWS V14.01,2013-05-24 18:21:00,
2013-05-24 11:27:00,68.7,55.2,29.95,SW,234,3.0,10.0,62,0.00,,---,0.00,VWS V14.01,2013-05-24 18:27:00,
2013-05-24 11:30:00,68.9,55.8,29.95,SW,229,6.0,11.0,63,0.00,,---,0.00,VWS V14.01,2013-05-24 18:30:00,
2013-05-24 11:32:00,68.9,56.2,29.95,SW,225,1.0,9.0,64,0.00,,---,0.00,VWS V14.01,2013-05-24 18:32:00,
2013-05-24 11:37:00,69.1,56.0,29.95,SW,233,5.0,10.0,63,0.00,,---,0.00,VWS V14.01,2013-05-24 18:37:00,
2013-05-24 11:42:00,69.4,55.4,29.96,SW,221,6.0,10.0,61,0.00,,---,0.00,VWS V14.01,2013-05-24 18:42:00,
2013-05-24 11:45:00,69.5,55.5,29.95,WSW,249,4.0,10.0,61,0.00,,---,0.00,VWS V14.01,2013-05-24 18:45:00,
2013-05-24 11:47:00,69.6,56.0,29.95,SW,221,3.0,7.0,62,0.00,,---,0.00,VWS V14.01,2013-05-24 18:47:00,
2013-05-24 11:52:00,69.3,55.3,29.95,WSW,240,5.0,9.0,61,0.00,,---,0.00,VWS V14.01,2013-05-24 18:52:00,
2013-05-24 11:57:00,69.4,55.8,29.95,SW,220,5.0,10.0,62,0.00,,---,0.00,VWS V14.01,2013-05-24 18:57:00,
2013-05-24 12:00:00,69.4,54.5,29.95,SSW,209,2.0,10.0,59,0.00,,---,0.00,VWS V14.01,2013-05-24 19:00:00,
2013-05-24 12:02:00,69.4,55.8,29.95,WSW,238,6.0,10.0,62,0.00,,---,0.00,VWS V14.01,2013-05-24 19:02:00,
2013-05-24 12:07:00,69.8,55.8,29.95,SSW,194,6.0,10.0,61,0.00,,---,0.00,VWS V14.01,2013-05-24 19:07:00,
2013-05-24 12:12:00,70.2,55.7,29.95,SW,227,8.0,11.0,60,0.00,,---,0.00,VWS V14.01,2013-05-24 19:12:00,
2013-05-24 12:15:00,70.3,55.8,29.95,WSW,250,5.0,11.0,60,0.00,,---,0.00,VWS V14.01,2013-05-24 19:15:00,
2013-05-24 12:17:00,70.3,55.8,29.95,SSW,198,3.0,9.0,60,0.00,,---,0.00,VWS V14.01,2013-05-24 19:17:00,
2013-05-24 12:22:00,70.5,55.0,29.95,West,269,0.0,9.0,58,0.00,,---,0.00,VWS V14.01,2013-05-24 19:22:00,
2013-05-24 12:27:00,70.8,56.7,29.95,SW,229,0.0,10.0,61,0.00,,---,0.00,VWS V14.01,2013-05-24 19:27:00,
2013-05-24 12:30:00,71.0,56.9,29.94,SW,235,5.0,10.0,61,0.00,,---,0.00,VWS V14.01,2013-05-24 19:30:00,
2013-05-24 12:32:00,71.0,56.9,29.94,WSW,242,4.0,5.0,61,0.00,,---,0.00,VWS V14.01,2013-05-24 19:32:00,
2013-05-24 12:37:00,71.3,56.2,29.94,SW,225,9.0,11.0,59,0.00,,---,0.00,VWS V14.01,2013-05-24 19:37:00,
2013-05-24 12:42:00,71.3,55.8,29.94,SW,228,10.0,11.0,58,0.00,,---,0.00,VWS V14.01,2013-05-24 19:42:00,
2013-05-24 12:45:00,71.2,56.6,29.94,SW,232,6.0,11.0,60,0.00,,---,0.00,VWS V14.01,2013-05-24 19:45:00,
2013-05-24 12:47:00,71.1,56.5,29.94,SW,234,4.0,8.0,60,0.00,,---,0.00,VWS V14.01,2013-05-24 19:47:00,
2013-05-24 12:52:00,71.0,56.0,29.94,SSW,213,4.0,10.0,59,0.00,,---,0.00,VWS V14.01,2013-05-24 19:52:00,
2013-05-24 12:57:00,71.1,56.5,29.94,WSW,238,6.0,10.0,60,0.00,,---,0.00,VWS V14.01,2013-05-24 19:57:00,
2013-05-24 13:00:00,71.2,56.2,29.94,SSW,196,5.0,10.0,59,0.00,,---,0.00,VWS V14.01,2013-05-24 20:00:00,
2013-05-24 13:02:00,71.3,56.2,29.94,SW,233,4.0,5.0,59,0.00,,---,0.00,VWS V14.01,2013-05-24 20:02:00,
2013-05-24 13:07:00,71.5,56.4,29.94,WSW,248,5.0,12.0,59,0.00,,---,0.00,VWS V14.01,2013-05-24 20:07:00,
2013-05-24 13:12:00,71.1,57.0,29.94,West,259,4.0,12.0,61,0.00,,---,0.00,VWS V14.01,2013-05-24 20:12:00,
2013-05-24 13:15:00,70.9,56.8,29.94,SW,230,9.0,12.0,61,0.00,,---,0.00,VWS V14.01,2013-05-24 20:15:00,
2013-05-24 13:17:00,70.8,56.2,29.94,SW,227,5.0,10.0,60,0.00,,---,0.00,VWS V14.01,2013-05-24 20:17:00,
2013-05-24 13:22:00,70.9,56.3,29.94,SW,223,6.0,10.0,60,0.00,,---,0.00,VWS V14.01,2013-05-24 20:22:00,
2013-05-24 13:27:00,71.4,57.3,29.94,SW,232,5.0,10.0,61,0.00,,---,0.00,VWS V14.01,2013-05-24 20:27:00,
2013-05-24 13:30:00,71.6,56.5,29.94,SW,215,6.0,10.0,59,0.00,,---,0.00,VWS V14.01,2013-05-24 20:30:00,
2013-05-24 13:32:00,71.7,57.1,29.94,SW,233,7.0,10.0,60,0.00,,---,0.00,VWS V14.01,2013-05-24 20:32:00,
2013-05-24 13:37:00,71.7,56.6,29.94,SW,214,6.0,12.0,59,0.00,,---,0.00,VWS V14.01,2013-05-24 20:37:00,
2013-05-24 13:42:00,71.7,56.6,29.94,SSE,168,2.0,12.0,59,0.00,,---,0.00,VWS V14.01,2013-05-24 20:42:00,
2013-05-24 13:45:00,71.9,56.8,29.94,SW,234,5.0,12.0,59,0.00,,---,0.00,VWS V14.01,2013-05-24 20:45:00,
2013-05-24 13:47:00,72.1,57.5,29.94,SW,234,6.0,11.0,60,0.00,,---,0.00,VWS V14.01,2013-05-24 20:47:00,
2013-05-24 13:52:00,71.9,55.9,29.94,SW,221,6.0,11.0,57,0.00,,---,0.00,VWS V14.01,2013-05-24 20:52:00,
2013-05-24 13:57:00,71.7,57.1,29.94,WSW,237,9.0,12.0,60,0.00,,---,0.00,VWS V14.01,2013-05-24 20:57:00,
2013-05-24 14:00:00,71.6,56.1,29.94,SW,229,10.0,12.0,58,0.00,,---,0.00,VWS V14.01,2013-05-24 21:00:00,
2013-05-24 14:02:00,71.4,55.9,29.94,WSW,248,3.0,10.0,58,0.00,,---,0.00,VWS V14.01,2013-05-24 21:02:00,
2013-05-24 14:07:00,71.0,56.9,29.94,SW,225,6.0,10.0,61,0.00,,---,0.00,VWS V14.01,2013-05-24 21:07:00,
2013-05-24 14:12:00,71.0,56.9,29.94,SSW,207,5.0,13.0,61,0.00,,---,0.00,VWS V14.01,2013-05-24 21:12:00,
2013-05-24 14:15:00,71.2,57.1,29.94,WSW,242,5.0,13.0,61,0.00,,---,0.00,VWS V14.01,2013-05-24 21:15:00,
2013-05-24 14:18:00,71.2,56.6,29.94,SW,232,4.0,11.0,60,0.00,,---,0.00,VWS V14.01,2013-05-24 21:18:00,
2013-05-24 14:23:00,71.1,56.5,29.94,SW,226,9.0,11.0,60,0.00,,---,0.00,VWS V14.01,2013-05-24 21:23:00,
2013-05-24 14:28:00,71.2,57.1,29.94,WSW,253,5.0,11.0,61,0.00,,---,0.00,VWS V14.01,2013-05-24 21:28:00,
2013-05-24 14:30:00,71.2,57.1,29.94,West,281,4.0,13.0,61,0.00,,---,0.00,VWS V14.01,2013-05-24 21:30:00,
2013-05-24 14:33:00,71.2,56.6,29.94,SW,232,12.0,12.0,60,0.00,,---,0.00,VWS V14.01,2013-05-24 21:33:00,
2013-05-24 14:38:00,70.9,56.3,29.93,SW,224,5.0,14.0,60,0.00,,---,0.00,VWS V14.01,2013-05-24 21:38:00,
2013-05-24 14:43:00,70.9,56.3,29.94,SW,219,6.0,14.0,60,0.00,,---,0.00,VWS V14.01,2013-05-24 21:43:00,
2013-05-24 14:45:00,70.9,56.3,29.94,WSW,244,5.0,14.0,60,0.00,,---,0.00,VWS V14.01,2013-05-24 21:45:00,
2013-05-24 14:48:00,70.8,56.2,29.93,WSW,247,7.0,13.0,60,0.00,,---,0.00,VWS V14.01,2013-05-24 21:48:00,
2013-05-24 14:53:00,70.3,56.2,29.93,SW,219,7.0,13.0,61,0.00,,---,0.00,VWS V14.01,2013-05-24 21:53:00,
2013-05-24 14:58:00,70.1,56.0,29.93,SW,234,11.0,13.0,61,0.00,,---,0.00,VWS V14.01,2013-05-24 21:58:00,
2013-05-24 15:00:00,70.1,56.9,29.93,SSW,209,4.0,13.0,63,0.00,,---,0.00,VWS V14.01,2013-05-24 22:00:00,
2013-05-24 15:03:00,69.9,55.8,29.94,WSW,239,5.0,12.0,61,0.00,,---,0.00,VWS V14.01,2013-05-24 22:03:00,
2013-05-24 15:08:00,69.7,56.6,29.93,SW,232,10.0,12.0,63,0.00,,---,0.00,VWS V14.01,2013-05-24 22:08:00,
2013-05-24 15:13:00,69.4,55.8,29.93,SSW,205,7.0,12.0,62,0.00,,---,0.00,VWS V14.01,2013-05-24 22:13:00,
2013-05-24 15:15:00,69.5,56.4,29.93,SSW,207,9.0,12.0,63,0.00,,---,0.00,VWS V14.01,2013-05-24 22:15:00,
2013-05-24 15:18:00,69.6,55.6,29.93,WSW,237,6.0,11.0,61,0.00,,---,0.00,VWS V14.01,2013-05-24 22:18:00,
2013-05-24 15:23:00,69.5,56.4,29.93,SW,225,12.0,12.0,63,0.00,,---,0.00,VWS V14.01,2013-05-24 22:23:00,
2013-05-24 15:28:00,69.3,55.3,29.93,SW,217,6.0,13.0,61,0.00,,---,0.00,VWS V14.01,2013-05-24 22:28:00,
2013-05-24 15:30:00,69.2,55.2,29.93,SW,222,6.0,13.0,61,0.00,,---,0.00,VWS V14.01,2013-05-24 22:30:00,
2013-05-24 15:33:00,69.1,55.1,29.93,SW,229,6.0,12.0,61,0.00,,---,0.00,VWS V14.01,2013-05-24 22:33:00,
2013-05-24 15:38:00,68.9,55.4,29.93,SW,234,10.0,12.0,62,0.00,,---,0.00,VWS V14.01,2013-05-24 22:38:00,
2013-05-24 15:43:00,68.9,55.4,29.93,SSW,211,6.0,12.0,62,0.00,,---,0.00,VWS V14.01,2013-05-24 22:43:00,
2013-05-24 15:45:00,69.0,55.9,29.93,SW,233,3.0,12.0,63,0.00,,---,0.00,VWS V14.01,2013-05-24 22:45:00,
2013-05-24 15:48:00,69.1,55.5,29.93,WSW,254,4.0,12.0,62,0.00,,---,0.00,VWS V14.01,2013-05-24 22:48:00,
2013-05-24 15:53:00,69.1,55.5,29.93,SW,230,3.0,12.0,62,0.00,,---,0.00,VWS V14.01,2013-05-24 22:53:00,
2013-05-24 15:58:00,69.1,55.5,29.93,SW,223,1.0,12.0,62,0.00,,---,0.00,VWS V14.01,2013-05-24 22:58:00,
2013-05-24 16:00:00,69.2,55.6,29.93,WSW,237,6.0,12.0,62,0.00,,---,0.00,VWS V14.01,2013-05-24 23:00:00,
2013-05-24 16:03:00,69.2,55.2,29.93,SW,219,2.0,11.0,61,0.00,,---,0.00,VWS V14.01,2013-05-24 23:03:00,
2013-05-24 16:08:00,69.1,55.5,29.93,South,187,0.0,11.0,62,0.00,,---,0.00,VWS V14.01,2013-05-24 23:08:00,
2013-05-24 16:13:00,69.2,55.2,29.93,SW,217,6.0,12.0,61,0.00,,---,0.00,VWS V14.01,2013-05-24 23:13:00,
2013-05-24 16:15:00,69.0,55.0,29.93,WSW,252,3.0,12.0,61,0.00,,---,0.00,VWS V14.01,2013-05-24 23:15:00,
2013-05-24 16:18:00,69.0,55.0,29.93,SW,227,5.0,9.0,61,0.00,,---,0.00,VWS V14.01,2013-05-24 23:18:00,
2013-05-24 16:23:00,69.0,55.0,29.93,South,184,6.0,9.0,61,0.00,,---,0.00,VWS V14.01,2013-05-24 23:23:00,
2013-05-24 16:28:00,69.0,55.0,29.93,SW,236,5.0,9.0,61,0.00,,---,0.00,VWS V14.01,2013-05-24 23:28:00,
2013-05-24 16:30:00,69.0,54.5,29.93,SSW,213,4.0,9.0,60,0.00,,---,0.00,VWS V14.01,2013-05-24 23:30:00,
2013-05-24 16:33:00,69.1,54.7,29.93,SW,225,4.0,7.0,60,0.00,,---,0.00,VWS V14.01,2013-05-24 23:33:00,
2013-05-24 16:38:00,69.4,55.4,29.93,SW,216,4.0,8.0,61,0.00,,---,0.00,VWS V14.01,2013-05-24 23:38:00,
2013-05-24 16:43:00,69.3,55.3,29.92,SSW,211,4.0,9.0,61,0.00,,---,0.00,VWS V14.01,2013-05-24 23:43:00,
2013-05-24 16:45:00,69.2,54.7,29.92,SSW,199,3.0,9.0,60,0.00,,---,0.00,VWS V14.01,2013-05-24 23:45:00,
2013-05-24 16:48:00,69.1,54.7,29.93,South,180,1.0,6.0,60,0.00,,---,0.00,VWS V14.01,2013-05-24 23:48:00,
2013-05-24 16:53:00,69.3,54.4,29.92,WSW,256,4.0,7.0,59,0.00,,---,0.00,VWS V14.01,2013-05-24 23:53:00,
2013-05-24 16:58:00,69.1,54.7,29.92,SW,232,5.0,9.0,60,0.00,,---,0.00,VWS V14.01,2013-05-24 23:58:00,
2013-05-24 17:00:00,68.9,54.0,29.92,SW,223,2.0,9.0,59,0.00,,---,0.00,VWS V14.01,2013-05-25 00:00:00,
2013-05-24 17:03:00,68.7,54.3,29.92,SSW,192,0.0,6.0,60,0.00,,---,0.00,VWS V14.01,2013-05-25 00:03:00,
2013-05-24 17:08:00,68.4,54.9,29.92,SW,221,4.0,7.0,62,0.00,,---,0.00,VWS V14.01,2013-05-25 00:08:00,
2013-05-24 17:13:00,68.1,55.0,29.92,SW,226,6.0,8.0,63,0.00,,---,0.00,VWS V14.01,2013-05-25 00:13:00,
2013-05-24 17:15:00,68.0,54.5,29.92,South,188,4.0,8.0,62,0.00,,---,0.00,VWS V14.01,2013-05-25 00:15:00,
2013-05-24 17:18:00,68.0,54.1,29.92,SW,232,0.0,7.0,61,0.00,,---,0.00,VWS V14.01,2013-05-25 00:18:00,
2013-05-24 17:23:00,67.7,53.8,29.92,SW,226,3.0,7.0,61,0.00,,---,0.00,VWS V14.01,2013-05-25 00:23:00,
2013-05-24 17:28:00,67.5,54.0,29.92,SSW,202,3.0,7.0,62,0.00,,---,0.00,VWS V14.01,2013-05-25 00:28:00,
2013-05-24 17:30:00,67.4,53.9,29.91,SW,219,4.0,7.0,62,0.00,,---,0.00,VWS V14.01,2013-05-25 00:30:00,
2013-05-24 17:33:00,67.4,54.4,29.92,SW,217,1.0,4.0,63,0.00,,---,0.00,VWS V14.01,2013-05-25 00:33:00,
2013-05-24 17:38:00,67.2,53.8,29.91,SW,225,4.0,7.0,62,0.00,,---,0.00,VWS V14.01,2013-05-25 00:38:00,
2013-05-24 17:43:00,66.9,53.5,29.91,WSW,256,3.0,7.0,62,0.00,,---,0.00,VWS V14.01,2013-05-25 00:43:00,
2013-05-24 17:45:00,66.8,53.8,29.91,SW,230,4.0,7.0,63,0.00,,---,0.00,VWS V14.01,2013-05-25 00:45:00,
2013-05-24 17:48:00,66.7,53.7,29.91,SW,221,0.0,5.0,63,0.00,,---,0.00,VWS V14.01,2013-05-25 00:48:00,
2013-05-24 17:53:00,66.5,53.5,29.91,WSW,242,3.0,6.0,63,0.00,,---,0.00,VWS V14.01,2013-05-25 00:53:00,
2013-05-24 17:58:00,66.3,53.3,29.91,West,267,1.0,6.0,63,0.00,,---,0.00,VWS V14.01,2013-05-25 00:58:00,
2013-05-24 18:00:00,66.3,53.3,29.91,West,266,0.0,6.0,63,0.00,,---,0.00,VWS V14.01,2013-05-25 01:00:00,
2013-05-24 18:04:00,66.3,53.3,29.91,West,265,0.0,4.0,63,0.00,,---,0.00,VWS V14.01,2013-05-25 01:04:00,
2013-05-24 18:09:00,66.1,53.2,29.90,SW,219,2.0,7.0,63,0.00,,---,0.00,VWS V14.01,2013-05-25 01:09:00,
2013-05-24 18:14:00,66.1,53.6,29.91,SSW,194,3.0,7.0,64,0.00,,---,0.00,VWS V14.01,2013-05-25 01:14:00,
2013-05-24 18:15:00,66.1,53.2,29.91,SW,234,2.0,7.0,63,0.00,,---,0.00,VWS V14.01,2013-05-25 01:15:00,
2013-05-24 18:19:00,66.1,53.2,29.91,West,264,0.0,6.0,63,0.00,,---,0.00,VWS V14.01,2013-05-25 01:19:00,
2013-05-24 18:24:00,65.9,52.5,29.90,SW,223,5.0,6.0,62,0.00,,---,0.00,VWS V14.01,2013-05-25 01:24:00,
2013-05-24 18:29:00,65.8,52.9,29.90,WSW,249,2.0,6.0,63,0.00,,---,0.00,VWS V14.01,2013-05-25 01:29:00,
2013-05-24 18:30:00,65.7,52.8,29.91,SW,215,0.0,6.0,63,0.00,,---,0.00,VWS V14.01,2013-05-25 01:30:00,
2013-05-24 18:34:00,65.6,53.1,29.90,WSW,238,0.0,3.0,64,0.00,,---,0.00,VWS V14.01,2013-05-25 01:34:00,
2013-05-24 18:39:00,65.3,52.4,29.91,SSW,210,1.0,3.0,63,0.00,,---,0.00,VWS V14.01,2013-05-25 01:39:00,
2013-05-24 18:44:00,65.1,52.6,29.91,SW,225,1.0,6.0,64,0.00,,---,0.00,VWS V14.01,2013-05-25 01:44:00,
2013-05-24 18:45:00,65.1,52.2,29.91,SW,231,4.0,6.0,63,0.00,,---,0.00,VWS V14.01,2013-05-25 01:45:00,
2013-05-24 18:49:00,65.0,52.5,29.91,SSW,206,0.0,4.0,64,0.00,,---,0.00,VWS V14.01,2013-05-25 01:49:00,
2013-05-24 18:54:00,64.9,52.5,29.91,SW,233,5.0,7.0,64,0.00,,---,0.00,VWS V14.01,2013-05-25 01:54:00,
2013-05-24 18:59:00,64.8,51.9,29.91,SW,217,5.0,7.0,63,0.00,,---,0.00,VWS V14.01,2013-05-25 01:59:00,
2013-05-24 19:00:00,64.7,51.8,29.91,SW,223,5.0,7.0,63,0.00,,---,0.00,VWS V14.01,2013-05-25 02:00:00,
2013-05-24 19:04:00,64.4,52.0,29.91,SSW,198,5.0,6.0,64,0.00,,---,0.00,VWS V14.01,2013-05-25 02:04:00,
2013-05-24 19:09:00,63.9,51.5,29.91,SW,225,2.0,6.0,64,0.00,,---,0.00,VWS V14.01,2013-05-25 02:09:00,
2013-05-24 19:14:00,63.5,52.0,29.91,SW,225,3.0,6.0,66,0.00,,---,0.00,VWS V14.01,2013-05-25 02:14:00,
2013-05-24 19:15:00,63.4,51.4,29.92,SW,225,4.0,6.0,65,0.00,,---,0.00,VWS V14.01,2013-05-25 02:15:00,
2013-05-24 19:19:00,63.0,51.5,29.92,SW,225,0.0,5.0,66,0.00,,---,0.00,VWS V14.01,2013-05-25 02:19:00,
2013-05-24 19:24:00,62.6,51.5,29.92,WSW,237,4.0,6.0,67,0.00,,---,0.00,VWS V14.01,2013-05-25 02:24:00,
2013-05-24 19:29:00,62.2,51.9,29.92,SSW,206,0.0,6.0,69,0.00,,---,0.00,VWS V14.01,2013-05-25 02:29:00,
2013-05-24 19:30:00,62.0,51.7,29.92,SSW,212,3.0,6.0,69,0.00,,---,0.00,VWS V14.01,2013-05-25 02:30:00,
2013-05-24 19:34:00,61.6,51.7,29.92,SW,219,4.0,5.0,70,0.00,,---,0.00,VWS V14.01,2013-05-25 02:34:00,
2013-05-24 19:39:00,61.1,52.0,29.92,SW,225,0.0,5.0,72,0.00,,---,0.00,VWS V14.01,2013-05-25 02:39:00,
2013-05-24 19:44:00,60.4,51.7,29.92,SW,217,0.0,5.0,73,0.00,,---,0.00,VWS V14.01,2013-05-25 02:44:00,
2013-05-24 19:45:00,60.3,51.6,29.92,SW,218,0.0,5.0,73,0.00,,---,0.00,VWS V14.01,2013-05-25 02:45:00,
2013-05-24 19:49:00,59.9,51.6,29.92,SW,217,2.0,5.0,74,0.00,,---,0.00,VWS V14.01,2013-05-25 02:49:00,
2013-05-24 19:54:00,59.3,51.4,29.93,SW,218,0.0,5.0,75,0.00,,---,0.00,VWS V14.01,2013-05-25 02:54:00,
2013-05-24 19:59:00,59.0,51.5,29.93,SW,220,2.0,5.0,76,0.00,,---,0.00,VWS V14.01,2013-05-25 02:59:00,
2013-05-24 20:00:00,58.8,51.3,29.93,SW,219,2.0,5.0,76,0.00,,---,0.00,VWS V14.01,2013-05-25 03:00:00,
2013-05-24 20:04:00,58.5,51.0,29.93,SW,219,3.0,4.0,76,0.00,,---,0.00,VWS V14.01,2013-05-25 03:04:00,
2013-05-24 20:09:00,58.2,51.0,29.93,South,176,0.0,4.0,77,0.00,,---,0.00,VWS V14.01,2013-05-25 03:09:00,
2013-05-24 20:14:00,58.0,50.8,29.93,South,176,0.0,4.0,77,0.00,,---,0.00,VWS V14.01,2013-05-25 03:14:00,
2013-05-24 20:15:00,57.9,50.7,29.92,South,177,2.0,4.0,77,0.00,,---,0.00,VWS V14.01,2013-05-25 03:15:00,
2013-05-24 20:19:00,57.7,50.5,29.92,South,176,0.0,2.0,77,0.00,,---,0.00,VWS V14.01,2013-05-25 03:19:00,
2013-05-24 20:24:00,57.5,50.7,29.92,South,177,0.0,2.0,78,0.00,,---,0.00,VWS V14.01,2013-05-25 03:24:00,
2013-05-24 20:29:00,57.2,50.4,29.93,South,176,0.0,2.0,78,0.00,,---,0.00,VWS V14.01,2013-05-25 03:29:00,
2013-05-24 20:30:00,57.2,50.8,29.93,South,177,0.0,2.0,79,0.00,,---,0.00,VWS V14.01,2013-05-25 03:30:00,
2013-05-24 20:34:00,57.0,50.6,29.93,South,176,0.0,3.0,79,0.00,,---,0.00,VWS V14.01,2013-05-25 03:34:00,
2013-05-24 20:39:00,56.7,50.3,29.93,South,176,0.0,3.0,79,0.00,,---,0.00,VWS V14.01,2013-05-25 03:39:00,
2013-05-24 20:44:00,56.5,50.4,29.93,South,177,0.0,3.0,80,0.00,,---,0.00,VWS V14.01,2013-05-25 03:44:00,
2013-05-24 20:45:00,56.5,50.4,29.93,South,176,0.0,3.0,80,0.00,,---,0.00,VWS V14.01,2013-05-25 03:45:00,
2013-05-24 20:49:00,56.3,50.2,29.93,South,176,0.0,0.0,80,0.00,,---,0.00,VWS V14.01,2013-05-25 03:49:00,
2013-05-24 20:54:00,56.2,49.8,29.93,South,177,0.0,3.0,79,0.00,,---,0.00,VWS V14.01,2013-05-25 03:54:00,
2013-05-24 20:59:00,56.1,50.0,29.94,South,177,1.0,3.0,80,0.00,,---,0.00,VWS V14.01,2013-05-25 03:59:00,
2013-05-24 21:00:00,56.1,50.0,29.94,South,176,0.0,3.0,80,0.00,,---,0.00,VWS V14.01,2013-05-25 04:00:00,
2013-05-24 21:01:00,56.1,50.0,29.93,South,177,0.0,0.0,80,0.00,,---,0.00,VWS V14.01,2013-05-25 04:01:00,
2013-05-24 21:02:00,56.0,49.9,29.93,South,176,0.0,0.0,80,0.00,,---,0.00,VWS V14.01,2013-05-25 04:02:00,
2013-05-24 21:07:00,56.0,49.9,29.94,South,176,0.0,2.0,80,0.00,,---,0.00,VWS V14.01,2013-05-25 04:07:00,
2013-05-24 21:12:00,55.8,49.7,29.94,South,176,0.0,3.0,80,0.00,,---,0.00,VWS V14.01,2013-05-25 04:12:00,
2013-05-24 21:15:00,55.8,49.7,29.94,South,176,0.0,4.0,80,0.00,,---,0.00,VWS V14.01,2013-05-25 04:15:00,
2013-05-24 21:17:00,55.7,49.6,29.94,South,176,0.0,2.0,80,0.00,,---,0.00,VWS V14.01,2013-05-25 04:17:00,
2013-05-24 21:22:00,55.6,49.9,29.95,South,176,0.0,3.0,81,0.00,,---,0.00,VWS V14.01,2013-05-25 04:22:00,
2013-05-24 21:27:00,55.5,49.8,29.95,South,176,0.0,3.0,81,0.00,,---,0.00,VWS V14.01,2013-05-25 04:27:00,
2013-05-24 21:30:00,55.4,49.7,29.95,South,176,0.0,3.0,81,0.00,,---,0.00,VWS V14.01,2013-05-25 04:30:00,
2013-05-24 21:32:00,55.3,49.9,29.95,South,179,0.0,3.0,82,0.00,,---,0.00,VWS V14.01,2013-05-25 04:32:00,
2013-05-24 21:37:00,55.2,49.5,29.95,South,179,0.0,4.0,81,0.00,,---,0.00,VWS V14.01,2013-05-25 04:37:00,
2013-05-24 21:42:00,55.1,49.4,29.95,South,179,4.0,5.0,81,0.00,,---,0.00,VWS V14.01,2013-05-25 04:42:00,
2013-05-24 21:45:00,55.0,49.6,29.95,South,180,0.0,5.0,82,0.00,,---,0.00,VWS V14.01,2013-05-25 04:45:00,
2013-05-24 21:47:00,54.9,49.5,29.96,South,184,3.0,4.0,82,0.00,,---,0.00,VWS V14.01,2013-05-25 04:47:00,
2013-05-24 21:52:00,54.8,49.4,29.96,South,183,0.0,4.0,82,0.00,,---,0.00,VWS V14.01,2013-05-25 04:52:00,
2013-05-24 21:57:00,54.8,49.4,29.96,South,184,0.0,4.0,82,0.00,,---,0.00,VWS V14.01,2013-05-25 04:57:00,
2013-05-24 22:00:00,54.7,49.3,29.96,South,184,0.0,4.0,82,0.00,,---,0.00,VWS V14.01,2013-05-25 05:00:00,
2013-05-24 22:02:00,54.7,49.3,29.95,South,184,0.0,0.0,82,0.00,,---,0.00,VWS V14.01,2013-05-25 05:02:00,
2013-05-24 22:07:00,54.6,49.2,29.95,South,184,0.0,3.0,82,0.00,,---,0.00,VWS V14.01,2013-05-25 05:07:00,
2013-05-24 22:12:00,54.7,49.3,29.96,South,183,0.0,3.0,82,0.00,,---,0.00,VWS V14.01,2013-05-25 05:12:00,
2013-05-24 22:15:00,54.6,49.2,29.96,South,183,0.0,3.0,82,0.00,,---,0.00,VWS V14.01,2013-05-25 05:15:00,
2013-05-24 22:17:00,54.6,49.2,29.96,South,184,0.0,0.0,82,0.00,,---,0.00,VWS V14.01,2013-05-25 05:17:00,
2013-05-24 22:22:00,54.5,49.1,29.96,South,184,0.0,0.0,82,0.00,,---,0.00,VWS V14.01,2013-05-25 05:22:00,
2013-05-24 22:28:00,54.4,49.0,29.96,South,184,0.0,0.0,82,0.00,,---,0.00,VWS V14.01,2013-05-25 05:28:00,
2013-05-24 22:30:00,54.3,48.9,29.97,South,184,0.0,0.0,82,0.00,,---,0.00,VWS V14.01,2013-05-25 05:30:00,
2013-05-24 22:33:00,54.3,49.3,29.97,South,183,0.0,0.0,83,0.00,,---,0.00,VWS V14.01,2013-05-25 05:33:00,
2013-05-24 22:38:00,54.3,49.3,29.97,South,184,0.0,3.0,83,0.00,,---,0.00,VWS V14.01,2013-05-25 05:38:00,
2013-05-24 22:43:00,54.3,49.3,29.97,South,184,0.0,3.0,83,0.00,,---,0.00,VWS V14.01,2013-05-25 05:43:00,
2013-05-24 22:45:00,54.3,49.3,29.97,South,184,0.0,3.0,83,0.00,,---,0.00,VWS V14.01,2013-05-25 05:45:00,
2013-05-24 22:48:00,54.4,49.3,29.97,South,184,0.0,0.0,83,0.00,,---,0.00,VWS V14.01,2013-05-25 05:48:00,
2013-05-24 22:53:00,54.3,48.9,29.97,South,184,0.0,0.0,82,0.00,,---,0.00,VWS V14.01,2013-05-25 05:53:00,
2013-05-24 22:58:00,54.2,48.8,29.96,South,184,0.0,0.0,82,0.00,,---,0.00,VWS V14.01,2013-05-25 05:58:00,
2013-05-24 23:00:00,54.1,48.7,29.96,South,184,2.0,3.0,82,0.00,,---,0.00,VWS V14.01,2013-05-25 06:00:00,
2013-05-24 23:03:00,54.1,48.7,29.96,South,184,0.0,2.0,82,0.00,,---,0.00,VWS V14.01,2013-05-25 06:03:00,
2013-05-24 23:08:00,54.2,49.2,29.97,SSE,165,2.0,3.0,83,0.00,,---,0.00,VWS V14.01,2013-05-25 06:08:00,
2013-05-24 23:13:00,54.2,49.2,29.97,SSE,165,0.0,3.0,83,0.00,,---,0.00,VWS V14.01,2013-05-25 06:13:00,
2013-05-24 23:15:00,54.2,49.2,29.97,SSE,166,0.0,3.0,83,0.00,,---,0.00,VWS V14.01,2013-05-25 06:15:00,
2013-05-24 23:18:00,54.2,49.2,29.97,SSE,165,0.0,0.0,83,0.00,,---,0.00,VWS V14.01,2013-05-25 06:18:00,
2013-05-24 23:23:00,53.9,48.2,29.97,SSE,166,0.0,0.0,81,0.00,,---,0.00,VWS V14.01,2013-05-25 06:23:00,
2013-05-24 23:28:00,53.6,47.6,29.97,SSE,166,0.0,0.0,80,0.00,,---,0.00,VWS V14.01,2013-05-25 06:28:00,
2013-05-24 23:30:00,53.4,47.4,29.97,SSE,165,0.0,0.0,80,0.00,,---,0.00,VWS V14.01,2013-05-25 06:30:00,
2013-05-24 23:33:00,53.3,47.0,29.97,SSE,165,0.0,0.0,79,0.00,,---,0.00,VWS V14.01,2013-05-25 06:33:00,
2013-05-24 23:38:00,53.1,46.8,29.97,SE,141,2.0,3.0,79,0.00,,---,0.00,VWS V14.01,2013-05-25 06:38:00,
2013-05-24 23:43:00,52.9,46.6,29.97,East,94,0.0,4.0,79,0.00,,---,0.00,VWS V14.01,2013-05-25 06:43:00,
2013-05-24 23:45:00,52.8,46.5,29.97,East,94,0.0,4.0,79,0.00,,---,0.00,VWS V14.01,2013-05-25 06:45:00,
2013-05-24 23:48:00,52.7,46.4,29.97,East,94,0.0,0.0,79,0.00,,---,0.00,VWS V14.01,2013-05-25 06:48:00,
2013-05-24 23:53:00,52.6,46.0,29.97,East,95,0.0,0.0,78,0.00,,---,0.00,VWS V14.01,2013-05-25 06:53:00,
2013-05-24 23:58:00,52.4,45.8,29.98,East,94,0.0,0.0,78,0.00,,---,0.00,VWS V14.01,2013-05-25 06:58:00,